This demonstration page uses our WeatherBlox Daily Observations layout. Learn more.

38.88101, -77.10428

Hourly Observations for June 7, 2019

Temp ( °F °C ) Dew Point ( °F °C ) Humidity (%) Winds ( mph kmh ) Pressure ( in mb ) Visibility ( mi km ) Precip ( " mm )
12:52 am 00:52 Mostly Cloudy 74 23.3 66 18.9 76 76 Calm 29.83 1010 10 16.0934 0 0
1:52 am 01:52 Mostly Cloudy 75 23.9 68 20 79 79 NNE 5 7 29.82 1010 10 16.0934 0 0
2:52 am 02:52 Cloudy 74 23.3 68 20 82 82 NE 5 7 29.82 1010 10 16.0934 0 0
3:52 am 03:52 Cloudy 74 23.3 68 20 82 82 NNE 7 11 29.82 1010 10 16.0934 0 0
4:52 am 04:52 Cloudy 74 23.3 67 19.4 79 79 NNE 9 15 29.83 1010 10 16.0934 0 0
5:52 am 05:52 Cloudy 73 22.8 66 18.9 79 79 NNE 7 11 29.85 1011 10 16.0934 0 0
6:52 am 06:52 Cloudy 73 22.8 65 18.3 76 76 NE 12 19 29.87 1012 10 16.0934 0 0
7:52 am 07:52 Cloudy 75 23.9 63 17.2 66 66 NE 13 20 29.89 1012 10 16.0934 0 0
8:52 am 08:52 Cloudy 71 21.7 63 17.2 76 76 NE 12 19 29.89 1012 10 16.0934 0 0
9:52 am 09:52 Cloudy 78 25.6 63 17.2 60 60 NE 9 15 29.9 1012 10 16.0934 0 0
10:52 am 10:52 Cloudy 75 23.9 62 16.7 64 64 ENE 13 20 29.91 1013 10 16.0934 0 0
11:52 am 11:52 Cloudy 78 25.6 63 17.2 60 60 NE 13 20 29.91 1013 10 16.0934 0 0
12:52 pm 12:52 Cloudy 81 27.2 64 17.8 57 57 NE 10 17 29.92 1013 10 16.0934 0 0
1:52 pm 13:52 Cloudy 73 22.8 63 17.2 71 71 ENE 10 17 29.91 1013 10 16.0934 0 0
2:52 pm 14:52 Cloudy 79 26.1 62 16.7 56 56 NE 10 17 29.9 1013 10 16.0934 0 0
3:52 pm 15:52 Cloudy 71 21.7 62 16.7 73 73 ENE 10 17 29.91 1013 10 16.0934 0 0
4:52 pm 16:52 Cloudy 79 26.1 62 16.7 56 56 ENE 12 19 29.91 1013 10 16.0934 0 0
5:52 pm 17:52 Cloudy 79 26.1 62 16.7 56 56 ENE 9 15 29.9 1013 10 16.0934 0 0
6:52 pm 18:52 Cloudy 78 25.6 62 16.7 58 58 ENE 8 13 29.91 1013 10 16.0934 0 0
7:52 pm 19:52 Cloudy 78 25.6 63 17.2 60 60 E 7 11 29.93 1013 10 16.0934 0 0
8:52 pm 20:52 Cloudy 77 25 63 17.2 62 62 E 7 11 29.94 1014 10 16.0934 0 0
9:52 pm 21:52 Cloudy 76 24.4 62 16.7 62 62 NE 7 11 29.96 1015 10 16.0934 0 0
10:52 pm 22:52 Cloudy 76 24.4 63 17.2 64 64 NE 7 11 29.97 1015 10 16.0934 0 0
11:52 pm 23:52 Cloudy 75 23.9 63 17.2 66 66 NE 9 15 29.97 1015 10 16.0934 0 0

Powered by AerisWeather